Weather History for Pipestone, MN

Change the Weather History Date:

Thursday, March 28, 2013

  Actual Average Record
Temperature  
Mean Temperature 42 °F -  
Max Temperature 55 °F 44 °F 66 °F (2005)
Min Temperature 30 °F 27 °F 15 °F (2009)
Degree Days  
Heating Degree Days 22    
Moisture  
Dew Point 32 °F    
Average Humidity 74    
Maximum Humidity 93    
Minimum Humidity 41    
Precipitation  
Precipitation 0.00 in - - ()
Sea Level Pressure  
Sea Level Pressure 30.19 in    
Wind  
Wind Speed 9 mph (South)    
Max Wind Speed 15 mph    
Max Gust Speed 20 mph    
Visibility 10 miles    
Events      
Averages and records for this station are not official NWS values.
T = Trace of Precipitation, MM = Missing Value Source: NWS Daily Summary

Daily Weather History Graph

Daily Weather History Graph

Search for Another Location

Airport:

Trip Planner

Search our weather history database for the weather conditions in past years. The results will help you decide how hot, cold, wet, or windy it might be!

Date:

Astronomy

Mar. 28, 2013 Rise Set
Actual Time 7:13 AM CDT 7:47 PM CDT
Civil Twilight 6:44 AM CDT 8:16 PM CDT
Nautical Twilight 6:10 AM CDT 8:51 PM CDT
Astronomical Twilight 5:34 AM CDT 9:26 PM CDT
Moon 9:46 PM CDT (3/28) 7:38 AM CDT (3/28)
Length of Visible Light 13h 32m
Length of Day
12h 34m
Full, 98% of the Moon is Illuminated
Mar 28
Full
Apr 2
Last Quarter
Apr 10
New
Apr 18
First Quarter
Apr 25
Full

Hourly Weather History & Observations

Time (CDT) Temp. Windchill Dew Point Humidity Pressure Visibility Wind Dir Wind Speed Gust Speed Precip Events Conditions
12:13 AM 32.0 °F 24.8 °F 28.4 °F 87% 30.23 in 10.0 mi SE 8.1 mph - N/A   Scattered Clouds
12:33 AM 32.0 °F 24.8 °F 28.4 °F 87% 30.23 in 10.0 mi SE 8.1 mph - N/A   Scattered Clouds
12:53 AM 30.2 °F 21.3 °F 28.4 °F 93% 30.22 in 10.0 mi SE 10.4 mph - N/A   Clear
1:13 AM 30.2 °F 21.3 °F 28.4 °F 93% 30.22 in 10.0 mi SE 10.4 mph - N/A   Clear
1:33 AM 30.2 °F 21.3 °F 28.4 °F 93% 30.22 in 10.0 mi SE 10.4 mph - N/A   Clear
1:53 AM 30.2 °F 21.9 °F 28.4 °F 93% 30.22 in 10.0 mi SE 9.2 mph - N/A   Clear
2:13 AM 30.2 °F 20.8 °F 28.4 °F 93% 30.22 in 10.0 mi SE 11.5 mph - N/A   Clear
2:33 AM 30.2 °F 21.3 °F 28.4 °F 93% 30.22 in 10.0 mi SSE 10.4 mph - N/A   Clear
2:53 AM 30.2 °F 21.3 °F 26.6 °F 86% 30.21 in 10.0 mi SSE 10.4 mph - N/A   Clear
3:13 AM 30.2 °F 21.9 °F 26.6 °F 86% 30.21 in 10.0 mi SSE 9.2 mph - N/A   Clear
3:33 AM 30.2 °F 21.9 °F 26.6 °F 86% 30.21 in 10.0 mi SSE 9.2 mph - N/A   Clear
3:53 AM 30.2 °F 22.6 °F 26.6 °F 86% 30.21 in 10.0 mi SE 8.1 mph - N/A   Clear
4:13 AM 30.2 °F 22.6 °F 26.6 °F 86% 30.21 in 10.0 mi SSE 8.1 mph - N/A   Clear
4:33 AM 30.2 °F 22.6 °F 26.6 °F 86% 30.20 in 10.0 mi SE 8.1 mph - N/A   Clear
4:53 AM 30.2 °F 22.6 °F 26.6 °F 86% 30.20 in 10.0 mi SE 8.1 mph - N/A   Clear
5:13 AM 30.2 °F 22.6 °F 26.6 °F 86% 30.20 in 10.0 mi SSE 8.1 mph - N/A   Scattered Clouds
5:33 AM 30.2 °F 22.6 °F 26.6 °F 86% 30.20 in 10.0 mi SSE 8.1 mph - N/A   Clear
5:53 AM 30.2 °F 22.6 °F 26.6 °F 86% 30.20 in 10.0 mi SSE 8.1 mph - N/A   Clear
6:13 AM 30.2 °F 23.4 °F 26.6 °F 86% 30.20 in 10.0 mi SSE 6.9 mph - N/A   Clear
6:33 AM 30.2 °F 25.4 °F 26.6 °F 86% 30.20 in 10.0 mi SSE 4.6 mph - N/A   Clear
6:53 AM 30.2 °F 23.4 °F 26.6 °F 86% 30.20 in 10.0 mi SSE 6.9 mph - N/A   Scattered Clouds
7:13 AM 30.2 °F 22.6 °F 26.6 °F 86% 30.20 in 10.0 mi SSE 8.1 mph - N/A   Scattered Clouds
7:54 AM 30.2 °F 21.9 °F 26.6 °F 86% 30.20 in 10.0 mi SSE 9.2 mph - N/A   Clear
8:13 AM 30.2 °F 22.6 °F 26.6 °F 86% 30.21 in 10.0 mi SSE 8.1 mph - N/A   Clear
8:33 AM 32.0 °F 23.6 °F 28.4 °F 87% 30.20 in 10.0 mi SSE 10.4 mph - N/A   Clear
8:53 AM 32.0 °F 23.6 °F 28.4 °F 87% 30.20 in 10.0 mi SSE 10.4 mph - N/A   Clear
9:13 AM 33.8 °F 27.0 °F 28.4 °F 81% 30.20 in 10.0 mi SSE 8.1 mph - N/A   Clear
9:33 AM 33.8 °F 25.8 °F 30.2 °F 87% 30.20 in 10.0 mi SSE 10.4 mph - N/A   Clear
9:53 AM 35.6 °F 28.6 °F 30.2 °F 81% 30.20 in 10.0 mi SSE 9.2 mph - N/A   Clear
10:13 AM 37.4 °F 30.8 °F 30.2 °F 75% 30.20 in 10.0 mi South 9.2 mph - N/A   Clear
10:33 AM 39.2 °F 32.5 °F 32.0 °F 75% 30.20 in 10.0 mi South 10.4 mph - N/A   Clear
10:53 AM 39.2 °F 32.0 °F 33.8 °F 81% 30.20 in 10.0 mi South 11.5 mph - N/A   Clear
11:13 AM 41.0 °F 34.3 °F 33.8 °F 76% 30.20 in 10.0 mi South 11.5 mph - N/A   Clear
11:33 AM 42.8 °F 36.2 °F 33.8 °F 70% 30.20 in 10.0 mi South 12.7 mph - N/A   Clear
11:53 AM 44.6 °F 37.8 °F 33.8 °F 66% 30.20 in 10.0 mi South 15.0 mph - N/A   Scattered Clouds
12:13 PM 44.6 °F 38.4 °F 33.8 °F 66% 30.20 in 10.0 mi South 12.7 mph - N/A   Mostly Cloudy
12:33 PM 46.4 °F 40.7 °F 35.6 °F 66% 30.20 in 10.0 mi SSW 12.7 mph - N/A   Scattered Clouds
12:53 PM 46.4 °F 40.7 °F 35.6 °F 66% 30.19 in 10.0 mi South 12.7 mph - N/A   Clear
1:13 PM 48.2 °F - 35.6 °F 62% 30.18 in 10.0 mi South 11.5 mph - N/A   Clear
1:33 PM 50.0 °F - 35.6 °F 58% 30.18 in 10.0 mi SSW 13.8 mph - N/A   Clear
1:53 PM 50.0 °F - 35.6 °F 58% 30.18 in 10.0 mi SSW 10.4 mph 18.4 mph N/A   Clear
2:13 PM 51.8 °F - 35.6 °F 54% 30.17 in 10.0 mi SSW 12.7 mph 16.1 mph N/A   Scattered Clouds
2:33 PM 51.8 °F - 35.6 °F 54% 30.17 in 10.0 mi SSW 12.7 mph - N/A   Scattered Clouds
2:53 PM 53.6 °F - 35.6 °F 51% 30.16 in 10.0 mi SSW 10.4 mph 19.6 mph N/A   Scattered Clouds
3:13 PM 53.6 °F - 35.6 °F 51% 30.16 in 10.0 mi SSW 13.8 mph 19.6 mph N/A   Scattered Clouds
3:33 PM 53.6 °F - 33.8 °F 47% 30.16 in 10.0 mi SW 9.2 mph 16.1 mph N/A   Mostly Cloudy
3:54 PM 53.6 °F - 33.8 °F 47% 30.15 in 10.0 mi SSW 10.4 mph - N/A   Overcast
4:13 PM 53.6 °F - 33.8 °F 47% 30.15 in 10.0 mi WSW 6.9 mph - N/A   Scattered Clouds
4:33 PM 55.4 °F - 32.0 °F 41% 30.15 in 10.0 mi SW 11.5 mph - N/A   Mostly Cloudy
4:53 PM 55.4 °F - 33.8 °F 44% 30.15 in 10.0 mi SW 11.5 mph 16.1 mph N/A   Overcast
5:13 PM 55.4 °F - 33.8 °F 44% 30.15 in 10.0 mi SSW 6.9 mph - N/A   Overcast
5:33 PM 55.4 °F - 33.8 °F 44% 30.15 in 10.0 mi SW 9.2 mph - N/A   Mostly Cloudy
5:53 PM 53.6 °F - 33.8 °F 47% 30.15 in 10.0 mi SSW 10.4 mph - N/A   Overcast
6:13 PM 53.6 °F - 33.8 °F 47% 30.15 in 10.0 mi South 6.9 mph - N/A   Scattered Clouds
6:33 PM 53.6 °F - 35.6 °F 51% 30.15 in 10.0 mi South 4.6 mph - N/A   Clear
6:53 PM 51.8 °F - 35.6 °F 54% 30.15 in 10.0 mi South 6.9 mph - N/A   Clear
7:13 PM 50.0 °F - 35.6 °F 58% 30.15 in 10.0 mi South 5.8 mph - N/A   Clear
7:33 PM 48.2 °F - 35.6 °F 62% 30.16 in 10.0 mi SSE 6.9 mph - N/A   Clear
7:53 PM 46.4 °F 41.5 °F 35.6 °F 66% 30.16 in 10.0 mi South 10.4 mph - N/A   Clear
8:13 PM 44.6 °F 38.8 °F 35.6 °F 71% 30.16 in 10.0 mi South 11.5 mph - N/A   Clear
8:33 PM 42.8 °F 37.0 °F 35.6 °F 76% 30.17 in 10.0 mi South 10.4 mph - N/A   Clear
8:54 PM 42.8 °F 37.0 °F 35.6 °F 76% 30.17 in 10.0 mi South 10.4 mph - N/A   Clear
9:13 PM 41.0 °F 34.7 °F 35.6 °F 81% 30.18 in 10.0 mi South 10.4 mph - N/A   Clear
9:33 PM 41.0 °F 34.3 °F 35.6 °F 81% 30.18 in 10.0 mi South 11.5 mph - N/A   Clear
9:54 PM 41.0 °F 34.3 °F 35.6 °F 81% 30.18 in 10.0 mi South 11.5 mph - N/A   Mostly Cloudy
10:13 PM 39.2 °F 32.0 °F 35.6 °F 87% 30.18 in 10.0 mi South 11.5 mph - N/A   Overcast
10:33 PM 39.2 °F 33.0 °F 35.6 °F 87% 30.19 in 10.0 mi South 9.2 mph - N/A   Overcast
10:53 PM 39.2 °F 32.0 °F 35.6 °F 87% 30.18 in 10.0 mi South 11.5 mph - N/A   Overcast
11:13 PM 39.2 °F 32.5 °F 33.8 °F 81% 30.19 in 10.0 mi South 10.4 mph - N/A   Overcast
11:33 PM 37.4 °F 31.4 °F 33.8 °F 87% 30.19 in 10.0 mi South 8.1 mph - N/A   Overcast
11:53 PM 37.4 °F 31.4 °F 33.8 °F 87% 30.19 in 10.0 mi SSE 8.1 mph - N/A   Overcast